Regional Weather Roundup
Issued by NWS

Home | Current Version | Previous Version | Text Only | Print | Product List | Glossary On
Versions: 1 2 3 4 5 6 7 8 9 10 11 12 13 14 15 16 17 18 19 20 21 22 23 24 25 26 27 28 29 30 31 32 33 34 35 36 37 38 39 40 41 42 43 44 45 46 47 48 49 50
345
ASUS43 KBIS 211010
RWRND

NORTH DAKOTA REGIONAL WEATHER ROUNDUP
NATIONAL WEATHER SERVICE BISMARCK ND
400 AM CST SAT JAN 21 2017

NOTE: "FAIR" INDICATES FEW OR NO CLOUDS BELOW 12,000 FEET WITH NO
SIGNIFICANT WEATHER AND/OR OBSTRUCTIONS TO VISIBILITY.


NDZ001>003-009>011-017-211100-
NORTHWEST NORTH DAKOTA

CITY           SKY/WX    TMP DP  RH WIND       PRES   REMARKS
WILLISTON      CLOUDY    25  22  88 CALM      29.30F
MINOT          CLOUDY    29  27  92 CALM      29.30F FOG
MINOT AFB      PTCLDY    27  27 100 CALM      29.30S FOG
$$

NDZ018>021-031>035-040>046-211100-
SOUTHWEST NORTH DAKOTA

CITY           SKY/WX    TMP DP  RH WIND       PRES   REMARKS
BISMARCK       CLOUDY    30  29  96 NW5       29.32S FOG
DICKINSON      CLOUDY    29  26  89 NW9       29.26F
GARRISON         N/A     24  22  91 CALM      29.30S
HETTINGER ARPT CLOUDY    31  26  82 W17       29.30S WCI  19
$$

NDZ004>008-012>016-024-026-027-054-211100-
NORTHEAST NORTH DAKOTA

CITY           SKY/WX    TMP DP  RH WIND       PRES   REMARKS
GRAND FORKS    CLOUDY    36  32  85 SE9       29.40F
GRND FRKS AFB  CLOUDY    34  34  99 SE9       29.39F
DEVILS LAKE    FOG      N/A N/A N/A SE10      29.35F VSB 3/4
$$

NDZ022-023-025-028>030-036>039-047>053-211100-
SOUTHEAST NORTH DAKOTA

CITY           SKY/WX    TMP DP  RH WIND       PRES   REMARKS
FARGO          CLOUDY    38  35  89 SE12      29.39F
JAMESTOWN      FOG       33  33 100 SE12      29.31F VSB 1/4
$$





USA.gov is the U.S. government's official web portal to all federal, state and local government web resources and services.